Weather History for Phoenix, AZ

Change the Weather History Date:

Tuesday, August 27, 2013

  Actual Average Record
Temperature  
Mean Temperature 94 °F 93 °F  
Max Temperature 107 °F 104 °F 113 °F (1981)
Min Temperature 80 °F 82 °F 64 °F (1920)
Degree Days  
Heating Degree Days 0 0  
Month to date heating degree days 0 0  
Since 1 June heating degree days 0 0  
Since 1 July heating degree days 0 0  
Cooling Degree Days 29 28  
Month to date cooling degree days 821 774  
Year to date cooling degree days 3780 3358  
Since 1 June cooling degree days 2682 2472  
Growing Degree Days 44 (Base 50)    
Moisture  
Dew Point 65 °F    
Average Humidity 47    
Maximum Humidity 74    
Minimum Humidity 19    
Precipitation  
Precipitation 0.00 in 0.03 in 2.43 in (1951)
Month to date precipitation 0.36 0.89  
Year to date precipitation 4.74 5.17  
Snow  
Snow 0.00 in - - ()
Month to date snowfall 0.0  
Year to date snowfall 0.0  
Since 1 July snowfall 0.0  
Snow Depth 0.00 in    
Sea Level Pressure  
Sea Level Pressure 29.72 in    
Wind  
Wind Speed 6 mph (SSW)    
Max Wind Speed 17 mph    
Max Gust Speed 22 mph    
Visibility 10 miles    
Events      
T = Trace of Precipitation, MM = Missing Value Source: NWS Daily Summary

Daily Weather History Graph

Daily Weather History Graph

Search for Another Location

Airport:

Trip Planner

Search our weather history database for the weather conditions in past years. The results will help you decide how hot, cold, wet, or windy it might be!

Date:

Astronomy

Aug. 27, 2013 Rise Set
Actual Time 5:58 AM MST 6:59 PM MST
Civil Twilight 5:33 AM MST 7:24 PM MST
Nautical Twilight 5:03 AM MST 7:55 PM MST
Astronomical Twilight 4:31 AM MST 8:26 PM MST
Moon 11:17 PM MST (8/27) 12:38 PM MST (8/27)
Length of Visible Light 13h 51m
Length of Day
13h 00m
Waning Gibbous, 56% of the Moon is Illuminated
Aug 27
Waning Gibbous
Aug 28
Last Quarter
Sep 5
New
Sep 12
First Quarter
Sep 19
Full

Hourly Weather History & Observations

Time (MST) Temp. Heat Index Dew Point Humidity Pressure Visibility Wind Dir Wind Speed Gust Speed Precip Events Conditions
12:51 AM 80.1 °F 83.6 °F 71.1 °F 74% 29.79 in 10.0 mi SW 5.8 mph - N/A   Overcast
1:51 AM 81.0 °F 84.1 °F 69.1 °F 67% 29.77 in 10.0 mi West 6.9 mph - N/A   Overcast
2:51 AM 81.0 °F 84.4 °F 70.0 °F 69% 29.75 in 10.0 mi West 4.6 mph - N/A   Overcast
3:51 AM 81.0 °F 84.4 °F 70.0 °F 69% 29.74 in 10.0 mi Calm Calm - N/A   Overcast
4:51 AM 81.0 °F 84.4 °F 70.0 °F 69% 29.74 in 10.0 mi Calm Calm - N/A   Overcast
5:51 AM 81.0 °F 84.9 °F 71.1 °F 72% 29.75 in 10.0 mi Calm Calm - N/A   Mostly Cloudy
6:51 AM 82.9 °F 86.5 °F 69.1 °F 63% 29.78 in 10.0 mi ENE 4.6 mph - N/A   Mostly Cloudy
7:51 AM 82.9 °F 87.5 °F 71.1 °F 67% 29.78 in 10.0 mi ESE 4.6 mph - N/A   Scattered Clouds
8:51 AM 87.1 °F 92.0 °F 70.0 °F 57% 29.78 in 10.0 mi East 5.8 mph - N/A   Scattered Clouds
9:51 AM 91.0 °F 95.2 °F 68.0 °F 47% 29.78 in 10.0 mi ESE 6.9 mph - N/A   Partly Cloudy
10:51 AM 95.0 °F 97.4 °F 64.9 °F 37% 29.77 in 10.0 mi SSE 6.9 mph - N/A   Partly Cloudy
11:51 AM 98.1 °F 101.2 °F 64.9 °F 34% 29.75 in 10.0 mi SSE 11.5 mph - N/A   Scattered Clouds
12:51 PM 102.9 °F 105.5 °F 63.0 °F 27% 29.73 in 10.0 mi SSE 8.1 mph - N/A   Partly Cloudy
1:51 PM 104.0 °F 104.6 °F 59.0 °F 23% 29.70 in 10.0 mi South 10.4 mph 20.7 mph N/A   Partly Cloudy
2:51 PM 106.0 °F 105.1 °F 55.9 °F 19% 29.67 in 10.0 mi SSW 12.7 mph 21.9 mph N/A   Partly Cloudy
3:51 PM 106.0 °F 105.1 °F 55.0 °F 19% 29.65 in 10.0 mi SW 8.1 mph - N/A   Scattered Clouds
4:51 PM 106.0 °F 105.1 °F 55.0 °F 19% 29.63 in 10.0 mi SSW 3.5 mph - N/A   Scattered Clouds
5:51 PM 102.9 °F 103.0 °F 59.0 °F 23% 29.63 in 10.0 mi SSW 6.9 mph - N/A   Scattered Clouds
6:51 PM 100.9 °F 101.6 °F 60.1 °F 26% 29.64 in 10.0 mi WSW 12.7 mph - N/A   Scattered Clouds
7:51 PM 99.0 °F 99.5 °F 61.0 °F 28% 29.66 in 10.0 mi WSW 11.5 mph - N/A   Scattered Clouds
8:51 PM 96.1 °F 98.3 °F 64.0 °F 35% 29.68 in 10.0 mi WSW 6.9 mph - N/A   Scattered Clouds
9:51 PM 93.9 °F 97.0 °F 66.0 °F 40% 29.69 in 10.0 mi SW 3.5 mph - N/A   Scattered Clouds
10:51 PM 96.1 °F 98.3 °F 64.0 °F 35% 29.68 in 10.0 mi NW 6.9 mph - N/A   Scattered Clouds
11:51 PM 93.9 °F 95.2 °F 63.0 °F 36% 29.68 in 10.0 mi West 4.6 mph - N/A   Partly Cloudy